Saint Bonnet de Bellac- Haute Vienne - France
Donnes mto: vendredi, 24/08/2012
Date Horaire Temp. E. Hum. E. P.atmo. Pluie Vent Direction Direction Ensoleilleme Solaire P. de rose Temp au vent Rafales
24/08/2012 00:00 20,3 C 62 % 1010,0 hPa 0,0 mm 0,0 km/h (0 Bft) N 360 0 min 0 W/m 12,8 C 20,3 C 3,2 km/h (1 Bft)
24/08/2012 00:10 20,1 C 62 % 1010,0 hPa 0,0 mm 0,0 km/h (0 Bft) N 360 0 min 0 W/m 12,6 C 20,1 C 0,0 km/h (0 Bft)
24/08/2012 00:20 20,0 C 63 % 1009,9 hPa 0,0 mm 0,0 km/h (0 Bft) N 360 0 min 0 W/m 12,7 C 20,0 C 0,0 km/h (0 Bft)
24/08/2012 00:30 19,8 C 63 % 1010,0 hPa 0,0 mm 0,0 km/h (0 Bft) N 360 0 min 0 W/m 12,5 C 19,8 C 0,0 km/h (0 Bft)
24/08/2012 00:40 19,8 C 63 % 1010,3 hPa 0,0 mm 0,0 km/h (0 Bft) N 360 0 min 0 W/m 12,5 C 19,8 C 0,0 km/h (0 Bft)
24/08/2012 00:50 19,6 C 64 % 1010,5 hPa 0,0 mm 0,0 km/h (0 Bft) N 360 0 min 0 W/m 12,6 C 19,6 C 0,0 km/h (0 Bft)
24/08/2012 01:00 19,4 C 65 % 1010,5 hPa 0,0 mm 0,0 km/h (0 Bft) N 360 0 min 0 W/m 12,6 C 19,4 C 0,0 km/h (0 Bft)
24/08/2012 01:10 19,4 C 64 % 1010,4 hPa 0,0 mm 0,0 km/h (0 Bft) N 360 0 min 0 W/m 12,4 C 19,4 C 0,0 km/h (0 Bft)
24/08/2012 01:20 19,2 C 65 % 1010,4 hPa 0,0 mm 0,0 km/h (0 Bft) N 360 0 min 0 W/m 12,5 C 19,2 C 0,0 km/h (0 Bft)
24/08/2012 01:30 18,9 C 65 % 1010,3 hPa 0,0 mm 0,0 km/h (0 Bft) N 360 0 min 0 W/m 12,2 C 18,9 C 0,0 km/h (0 Bft)
24/08/2012 01:40 18,7 C 66 % 1010,5 hPa 0,0 mm 0,0 km/h (0 Bft) N-NO 337 0 min 0 W/m 12,2 C 18,7 C 0,0 km/h (0 Bft)
24/08/2012 01:50 18,5 C 67 % 1010,5 hPa 0,0 mm 0,0 km/h (0 Bft) N-NO 337 0 min 0 W/m 12,3 C 18,5 C 0,0 km/h (0 Bft)
24/08/2012 02:00 18,4 C 68 % 1010,6 hPa 0,0 mm 0,0 km/h (0 Bft) N-NO 337 0 min 0 W/m 12,4 C 18,4 C 0,0 km/h (0 Bft)
24/08/2012 02:10 18,2 C 68 % 1010,1 hPa 0,0 mm 0,0 km/h (0 Bft) N-NO 337 0 min 0 W/m 12,2 C 18,2 C 0,0 km/h (0 Bft)
24/08/2012 02:20 18,1 C 69 % 1010,2 hPa 0,0 mm 0,0 km/h (0 Bft) NO 315 0 min 0 W/m 12,3 C 18,1 C 0,0 km/h (0 Bft)
24/08/2012 02:30 17,9 C 72 % 1010,2 hPa 0,0 mm 0,0 km/h (0 Bft) O 270 0 min 0 W/m 12,8 C 17,9 C 0,0 km/h (0 Bft)
24/08/2012 02:40 17,8 C 72 % 1010,0 hPa 0,0 mm 0,0 km/h (0 Bft) S-SO 202 0 min 0 W/m 12,7 C 17,8 C 3,2 km/h (1 Bft)
24/08/2012 02:50 17,8 C 72 % 1010,0 hPa 0,0 mm 0,0 km/h (0 Bft) SO 225 0 min 0 W/m 12,7 C 17,8 C 0,0 km/h (0 Bft)
24/08/2012 03:02 17,7 C 73 % 1010,0 hPa 0,0 mm 0,0 km/h (0 Bft) S-SO 202 0 min 0 W/m 12,8 C 17,7 C 0,0 km/h (0 Bft)
24/08/2012 03:10 17,6 C 72 % 1010,0 hPa 0,0 mm 0,0 km/h (0 Bft) SO 225 0 min 0 W/m 12,5 C 17,6 C 0,0 km/h (0 Bft)
24/08/2012 03:20 17,8 C 72 % 1010,0 hPa 0,0 mm 0,4 km/h (0 Bft) O-SO 247 0 min 0 W/m 12,7 C 17,8 C 0,4 km/h (0 Bft)
24/08/2012 03:30 17,8 C 72 % 1010,0 hPa 0,0 mm 1,4 km/h (1 Bft) S-SO 202 0 min 0 W/m 12,7 C 17,8 C 3,6 km/h (1 Bft)
24/08/2012 03:40 17,7 C 72 % 1010,0 hPa 0,0 mm 0,0 km/h (0 Bft) SO 225 0 min 0 W/m 12,6 C 17,7 C 0,0 km/h (0 Bft)
24/08/2012 03:50 17,6 C 72 % 1009,7 hPa 0,0 mm 1,1 km/h (1 Bft) S-SO 202 0 min 0 W/m 12,5 C 17,6 C 2,9 km/h (1 Bft)
24/08/2012 04:00 17,6 C 71 % 1009,8 hPa 0,0 mm 0,0 km/h (0 Bft) S-SO 202 0 min 0 W/m 12,3 C 17,6 C 0,0 km/h (0 Bft)
24/08/2012 04:10 17,4 C 72 % 1009,8 hPa 0,0 mm 0,0 km/h (0 Bft) S-SO 202 0 min 0 W/m 12,3 C 17,4 C 0,0 km/h (0 Bft)
24/08/2012 04:20 17,3 C 73 % 1009,8 hPa 0,0 mm 1,4 km/h (1 Bft) S-SO 202 0 min 0 W/m 12,4 C 17,3 C 4,0 km/h (1 Bft)
24/08/2012 04:30 17,3 C 73 % 1010,3 hPa 0,0 mm 0,0 km/h (0 Bft) S-SO 202 0 min 0 W/m 12,4 C 17,3 C 0,0 km/h (0 Bft)
24/08/2012 04:40 17,3 C 74 % 1010,0 hPa 0,0 mm 2,9 km/h (1 Bft) S 180 0 min 0 W/m 12,6 C 17,3 C 2,9 km/h (1 Bft)
24/08/2012 04:50 17,2 C 74 % 1010,2 hPa 0,0 mm 1,1 km/h (1 Bft) SO 225 0 min 0 W/m 12,5 C 17,2 C 4,3 km/h (1 Bft)
24/08/2012 05:00 17,1 C 74 % 1010,1 hPa 0,0 mm 0,4 km/h (0 Bft) SO 225 0 min 0 W/m 12,4 C 17,1 C 0,4 km/h (0 Bft)
24/08/2012 05:10 17,1 C 74 % 1010,2 hPa 0,0 mm 0,4 km/h (0 Bft) S-SO 202 0 min 0 W/m 12,4 C 17,1 C 0,4 km/h (0 Bft)
24/08/2012 05:20 16,9 C 74 % 1010,1 hPa 0,0 mm 0,0 km/h (0 Bft) SO 225 0 min 0 W/m 12,2 C 16,9 C 0,0 km/h (0 Bft)
24/08/2012 05:30 16,9 C 75 % 1010,0 hPa 0,0 mm 0,7 km/h (0 Bft) SO 225 0 min 0 W/m 12,4 C 16,9 C 0,7 km/h (0 Bft)
24/08/2012 05:40 16,8 C 75 % 1009,8 hPa 0,0 mm 0,0 km/h (0 Bft) SO 225 0 min 0 W/m 12,3 C 16,8 C 0,0 km/h (0 Bft)
24/08/2012 05:50 16,8 C 75 % 1010,2 hPa 0,0 mm 0,0 km/h (0 Bft) S-SO 202 0 min 0 W/m 12,3 C 16,8 C 1,4 km/h (1 Bft)
24/08/2012 06:00 16,8 C 76 % 1009,9 hPa 0,0 mm 0,0 km/h (0 Bft) S-SO 202 0 min 0 W/m 12,5 C 16,8 C 0,0 km/h (0 Bft)
24/08/2012 06:10 16,8 C 75 % 1009,6 hPa 0,0 mm 0,0 km/h (0 Bft) S-SE 157 0 min 0 W/m 12,3 C 16,8 C 0,0 km/h (0 Bft)
24/08/2012 06:20 16,8 C 75 % 1009,5 hPa 0,0 mm 0,0 km/h (0 Bft) NE 45 0 min 0 W/m 12,3 C 16,8 C 0,0 km/h (0 Bft)
24/08/2012 06:30 16,6 C 76 % 1009,8 hPa 0,0 mm 2,9 km/h (1 Bft) S-SO 202 0 min 0 W/m 12,3 C 16,6 C 4,3 km/h (1 Bft)
24/08/2012 06:40 16,6 C 75 % 1009,6 hPa 0,0 mm 0,4 km/h (0 Bft) S-SO 202 0 min 0 W/m 12,1 C 16,6 C 0,4 km/h (0 Bft)
24/08/2012 06:50 16,6 C 75 % 1009,4 hPa 0,0 mm 0,0 km/h (0 Bft) S-SE 157 0 min 0 W/m 12,1 C 16,6 C 0,0 km/h (0 Bft)
24/08/2012 07:00 16,6 C 75 % 1009,6 hPa 0,0 mm 0,0 km/h (0 Bft) S-SO 202 0 min 0 W/m 12,1 C 16,6 C 0,0 km/h (0 Bft)
24/08/2012 07:10 16,6 C 74 % 1009,5 hPa 0,0 mm 0,0 km/h (0 Bft) O-SO 247 0 min 0 W/m 11,9 C 16,6 C 0,0 km/h (0 Bft)
24/08/2012 07:20 16,6 C 75 % 1009,9 hPa 0,0 mm 0,0 km/h (0 Bft) S-SO 202 0 min 0 W/m 12,1 C 16,6 C 0,0 km/h (0 Bft)
24/08/2012 07:30 16,6 C 75 % 1009,5 hPa 0,0 mm 0,0 km/h (0 Bft) S-SO 202 0 min 0 W/m 12,1 C 16,6 C 0,0 km/h (0 Bft)
24/08/2012 07:40 16,6 C 74 % 1009,3 hPa 0,0 mm 0,0 km/h (0 Bft) S-SO 202 0 min 0 W/m 11,9 C 16,6 C 0,0 km/h (0 Bft)
24/08/2012 07:50 16,6 C 75 % 1009,7 hPa 0,0 mm 0,0 km/h (0 Bft) S-SO 202 0 min 0 W/m 12,1 C 16,6 C 0,0 km/h (0 Bft)
24/08/2012 08:00 16,6 C 75 % 1009,8 hPa 0,0 mm 1,4 km/h (1 Bft) S 180 0 min 0 W/m 12,1 C 16,6 C 4,3 km/h (1 Bft)
24/08/2012 08:10 16,8 C 74 % 1009,4 hPa 0,0 mm 0,0 km/h (0 Bft) SO 225 0 min 0 W/m 12,1 C 16,8 C 0,0 km/h (0 Bft)
24/08/2012 08:20 16,9 C 74 % 1009,8 hPa 0,0 mm 0,0 km/h (0 Bft) SO 225 0 min 0 W/m 12,2 C 16,9 C 0,0 km/h (0 Bft)
24/08/2012 08:30 17,1 C 74 % 1010,0 hPa 0,0 mm 1,1 km/h (1 Bft) S-SO 202 0 min 0 W/m 12,4 C 17,1 C 3,6 km/h (1 Bft)
24/08/2012 08:40 17,3 C 74 % 1010,0 hPa 0,0 mm 1,4 km/h (1 Bft) SO 225 0 min 0 W/m 12,6 C 17,3 C 1,4 km/h (1 Bft)
24/08/2012 08:50 17,4 C 74 % 1010,2 hPa 0,0 mm 0,7 km/h (0 Bft) S-SO 202 0 min 0 W/m 12,7 C 17,4 C 0,7 km/h (0 Bft)
24/08/2012 09:00 17,5 C 74 % 1010,6 hPa 0,0 mm 5,0 km/h (1 Bft) S-SO 202 0 min 0 W/m 12,8 C 17,5 C 8,6 km/h (2 Bft)
24/08/2012 09:10 17,6 C 73 % 1010,6 hPa 0,0 mm 4,7 km/h (1 Bft) O-NO 292 0 min 0 W/m 12,7 C 17,6 C 4,7 km/h (1 Bft)
24/08/2012 09:20 17,7 C 73 % 1011,1 hPa 0,0 mm 3,6 km/h (1 Bft) SO 225 0 min 0 W/m 12,8 C 17,7 C 4,0 km/h (1 Bft)
24/08/2012 09:30 17,6 C 73 % 1010,5 hPa 0,0 mm 0,7 km/h (0 Bft) SO 225 0 min 0 W/m 12,7 C 17,6 C 4,3 km/h (1 Bft)
24/08/2012 09:40 17,6 C 73 % 1010,5 hPa 0,0 mm 1,8 km/h (1 Bft) S 180 0 min 0 W/m 12,7 C 17,6 C 4,0 km/h (1 Bft)
24/08/2012 09:50 17,8 C 73 % 1010,7 hPa 0,0 mm 3,2 km/h (1 Bft) S-SO 202 0 min 0 W/m 12,9 C 17,8 C 6,1 km/h (2 Bft)
24/08/2012 10:00 17,9 C 72 % 1010,6 hPa 0,0 mm 0,4 km/h (0 Bft) S-SO 202 0 min 0 W/m 12,8 C 17,9 C 2,9 km/h (1 Bft)
24/08/2012 10:10 18,2 C 71 % 1010,8 hPa 0,0 mm 2,5 km/h (1 Bft) O-SO 247 0 min 0 W/m 12,9 C 18,2 C 4,3 km/h (1 Bft)
24/08/2012 10:20 18,3 C 70 % 1010,8 hPa 0,0 mm 3,2 km/h (1 Bft) S-SO 202 0 min 0 W/m 12,7 C 18,3 C 4,3 km/h (1 Bft)
24/08/2012 10:30 18,5 C 69 % 1010,7 hPa 0,0 mm 1,1 km/h (1 Bft) S-SO 202 0 min 0 W/m 12,7 C 18,5 C 4,3 km/h (1 Bft)
24/08/2012 10:40 18,5 C 69 % 1010,5 hPa 0,0 mm 0,0 km/h (0 Bft) S-SO 202 0 min 0 W/m 12,7 C 18,5 C 0,0 km/h (0 Bft)
24/08/2012 10:50 18,6 C 69 % 1009,9 hPa 0,0 mm 2,2 km/h (1 Bft) O-NO 292 0 min 0 W/m 12,8 C 18,6 C 6,5 km/h (2 Bft)
24/08/2012 11:00 18,8 C 69 % 1010,5 hPa 0,0 mm 0,7 km/h (0 Bft) SO 225 0 min 0 W/m 13,0 C 18,8 C 4,0 km/h (1 Bft)
24/08/2012 11:10 18,9 C 69 % 1010,9 hPa 0,0 mm 1,4 km/h (1 Bft) S 180 0 min 0 W/m 13,1 C 18,9 C 4,3 km/h (1 Bft)
24/08/2012 11:20 19,1 C 65 % 1010,2 hPa 0,0 mm 0,7 km/h (0 Bft) SO 225 0 min 0 W/m 12,4 C 19,1 C 4,3 km/h (1 Bft)
24/08/2012 11:30 19,3 C 66 % 1010,6 hPa 0,0 mm 1,4 km/h (1 Bft) S-SO 202 0 min 0 W/m 12,8 C 19,3 C 4,3 km/h (1 Bft)
24/08/2012 11:40 19,4 C 66 % 1010,7 hPa 0,0 mm 0,0 km/h (0 Bft) O 270 0 min 0 W/m 12,9 C 19,4 C 0,0 km/h (0 Bft)
24/08/2012 11:50 19,4 C 66 % 1010,6 hPa 0,0 mm 0,4 km/h (0 Bft) SO 225 0 min 0 W/m 12,9 C 19,4 C 3,6 km/h (1 Bft)
24/08/2012 12:00 19,4 C 65 % 1010,5 hPa 0,0 mm 6,1 km/h (2 Bft) S-SE 157 0 min 0 W/m 12,6 C 19,4 C 7,2 km/h (2 Bft)
24/08/2012 12:10 19,6 C 65 % 1010,5 hPa 0,0 mm 4,0 km/h (1 Bft) S-SO 202 0 min 0 W/m 12,8 C 19,6 C 7,2 km/h (2 Bft)
24/08/2012 12:20 19,9 C 64 % 1010,4 hPa 0,0 mm 2,2 km/h (1 Bft) S-SE 157 0 min 0 W/m 12,9 C 19,9 C 6,1 km/h (2 Bft)
24/08/2012 12:30 20,3 C 61 % 1010,2 hPa 0,0 mm 2,5 km/h (1 Bft) S 180 0 min 0 W/m 12,5 C 20,3 C 7,9 km/h (2 Bft)
24/08/2012 12:40 20,8 C 58 % 1010,1 hPa 0,0 mm 3,2 km/h (1 Bft) SO 225 0 min 0 W/m 12,2 C 20,8 C 4,3 km/h (1 Bft)
24/08/2012 12:50 21,9 C 54 % 1010,2 hPa 0,0 mm 4,0 km/h (1 Bft) O-SO 247 0 min 0 W/m 12,2 C 21,9 C 9,4 km/h (2 Bft)
24/08/2012 13:00 23,1 C 52 % 1010,3 hPa 0,0 mm 5,0 km/h (1 Bft) SO 225 0 min 0 W/m 12,7 C 23,1 C 7,9 km/h (2 Bft)
24/08/2012 13:10 24,3 C 50 % 1010,0 hPa 0,0 mm 4,3 km/h (1 Bft) SO 225 0 min 0 W/m 13,2 C 24,3 C 8,3 km/h (2 Bft)
24/08/2012 13:20 25,1 C 47 % 1009,9 hPa 0,0 mm 6,5 km/h (2 Bft) O-SO 247 0 min 0 W/m 13,0 C 25,1 C 9,0 km/h (2 Bft)
24/08/2012 13:30 25,3 C 46 % 1009,9 hPa 0,0 mm 10,1 km/h (2 Bft) S 180 0 min 0 W/m 12,8 C 25,3 C 15,5 km/h (3 Bft)
24/08/2012 13:40 25,1 C 45 % 1010,0 hPa 0,0 mm 9,0 km/h (2 Bft) O-SO 247 0 min 0 W/m 12,3 C 25,1 C 14,8 km/h (3 Bft)
24/08/2012 13:50 24,8 C 47 % 1010,0 hPa 0,0 mm 9,0 km/h (2 Bft) N 360 0 min 0 W/m 12,7 C 24,8 C 9,0 km/h (2 Bft)
24/08/2012 14:00 24,4 C 47 % 1010,0 hPa 0,0 mm 2,9 km/h (1 Bft) S-SO 202 0 min 0 W/m 12,3 C 24,4 C 3,6 km/h (1 Bft)
24/08/2012 14:10 23,9 C 48 % 1010,1 hPa 0,0 mm 7,2 km/h (2 Bft) S-SO 202 0 min 0 W/m 12,2 C 23,9 C 10,4 km/h (2 Bft)
24/08/2012 14:20 23,5 C 49 % 1010,1 hPa 0,0 mm 6,5 km/h (2 Bft) S-SO 202 0 min 0 W/m 12,2 C 23,5 C 10,4 km/h (2 Bft)
24/08/2012 14:30 23,2 C 49 % 1010,0 hPa 0,0 mm 5,4 km/h (2 Bft) SO 225 0 min 0 W/m 11,9 C 23,2 C 7,9 km/h (2 Bft)
24/08/2012 14:40 23,1 C 51 % 1010,0 hPa 0,0 mm 6,5 km/h (2 Bft) SO 225 0 min 0 W/m 12,4 C 23,1 C 11,5 km/h (2 Bft)
24/08/2012 14:50 22,9 C 50 % 1010,0 hPa 0,0 mm 10,1 km/h (2 Bft) S-SO 202 0 min 0 W/m 11,9 C 22,9 C 13,3 km/h (3 Bft)
24/08/2012 15:00 22,8 C 51 % 1010,0 hPa 0,0 mm 5,4 km/h (2 Bft) S-SO 202 0 min 0 W/m 12,1 C 22,8 C 5,4 km/h (2 Bft)
24/08/2012 15:10 22,6 C 52 % 1009,8 hPa 0,0 mm 3,6 km/h (1 Bft) S-SO 202 0 min 0 W/m 12,2 C 22,6 C 6,8 km/h (2 Bft)
24/08/2012 15:20 22,6 C 51 % 1009,9 hPa 0,0 mm 7,9 km/h (2 Bft) SO 225 0 min 0 W/m 11,9 C 22,6 C 19,4 km/h (3 Bft)
24/08/2012 15:30 22,3 C 51 % 1009,8 hPa 0,0 mm 7,6 km/h (2 Bft) SO 225 0 min 0 W/m 11,7 C 22,3 C 10,1 km/h (2 Bft)
24/08/2012 15:40 22,4 C 52 % 1009,6 hPa 0,0 mm 3,6 km/h (1 Bft) S-SE 157 0 min 0 W/m 12,1 C 22,4 C 3,6 km/h (1 Bft)
24/08/2012 15:50 22,5 C 54 % 1009,8 hPa 0,0 mm 4,7 km/h (1 Bft) S 180 0 min 0 W/m 12,7 C 22,5 C 9,4 km/h (2 Bft)
24/08/2012 16:00 22,6 C 53 % 1009,8 hPa 0,0 mm 8,3 km/h (2 Bft) SO 225 0 min 0 W/m 12,5 C 22,6 C 8,3 km/h (2 Bft)
24/08/2012 16:10 22,8 C 53 % 1009,7 hPa 0,0 mm 5,8 km/h (2 Bft) SO 225 0 min 0 W/m 12,7 C 22,8 C 10,1 km/h (2 Bft)
24/08/2012 16:20 22,8 C 53 % 1009,9 hPa 0,0 mm 8,6 km/h (2 Bft) SO 225 0 min 0 W/m 12,7 C 22,8 C 9,0 km/h (2 Bft)
24/08/2012 16:30 22,8 C 53 % 1010,0 hPa 0,0 mm 9,4 km/h (2 Bft) O-SO 247 0 min 0 W/m 12,7 C 22,8 C 13,0 km/h (3 Bft)
24/08/2012 16:40 22,7 C 54 % 1009,9 hPa 0,0 mm 3,2 km/h (1 Bft) S-SO 202 0 min 0 W/m 12,9 C 22,7 C 7,2 km/h (2 Bft)
24/08/2012 16:50 22,8 C 54 % 1009,9 hPa 0,0 mm 4,7 km/h (1 Bft) SO 225 0 min 0 W/m 13,0 C 22,8 C 6,8 km/h (2 Bft)
24/08/2012 17:00 22,6 C 54 % 1009,9 hPa 0,0 mm 2,5 km/h (1 Bft) S 180 0 min 0 W/m 12,8 C 22,6 C 6,1 km/h (2 Bft)
24/08/2012 17:10 22,8 C 54 % 1009,9 hPa 0,0 mm 4,0 km/h (1 Bft) S-SO 202 0 min 0 W/m 13,0 C 22,8 C 6,5 km/h (2 Bft)
24/08/2012 17:20 23,1 C 54 % 1009,9 hPa 0,0 mm 7,2 km/h (2 Bft) SO 225 0 min 0 W/m 13,3 C 23,1 C 9,7 km/h (2 Bft)
24/08/2012 17:30 23,3 C 54 % 1010,0 hPa 0,0 mm 7,6 km/h (2 Bft) S-SO 202 0 min 0 W/m 13,5 C 23,3 C 10,4 km/h (2 Bft)
24/08/2012 17:40 23,5 C 54 % 1009,7 hPa 0,0 mm 6,5 km/h (2 Bft) SO 225 0 min 0 W/m 13,6 C 23,5 C 10,8 km/h (2 Bft)
24/08/2012 17:50 23,8 C 53 % 1009,7 hPa 0,0 mm 5,8 km/h (2 Bft) SO 225 0 min 0 W/m 13,6 C 23,8 C 11,5 km/h (2 Bft)
24/08/2012 18:00 23,9 C 54 % 1009,6 hPa 0,0 mm 4,0 km/h (1 Bft) SO 225 0 min 0 W/m 14,0 C 23,9 C 6,5 km/h (2 Bft)
24/08/2012 18:10 23,6 C 54 % 1009,6 hPa 0,0 mm 5,4 km/h (2 Bft) SO 225 0 min 0 W/m 13,7 C 23,6 C 5,4 km/h (2 Bft)
24/08/2012 18:20 23,2 C 55 % 1009,5 hPa 0,0 mm 1,1 km/h (1 Bft) S-SO 202 0 min 0 W/m 13,6 C 23,2 C 3,6 km/h (1 Bft)
24/08/2012 18:30 22,8 C 56 % 1009,4 hPa 0,0 mm 1,1 km/h (1 Bft) SO 225 0 min 0 W/m 13,6 C 22,8 C 4,0 km/h (1 Bft)
24/08/2012 18:40 22,6 C 57 % 1009,4 hPa 0,0 mm 0,7 km/h (0 Bft) O 270 0 min 0 W/m 13,6 C 22,6 C 4,0 km/h (1 Bft)
24/08/2012 18:50 22,4 C 61 % 1009,2 hPa 0,0 mm 0,0 km/h (0 Bft) O-SO 247 0 min 0 W/m 14,5 C 22,4 C 0,0 km/h (0 Bft)
24/08/2012 19:00 22,5 C 63 % 1009,1 hPa 0,0 mm 0,7 km/h (0 Bft) O-SO 247 0 min 0 W/m 15,1 C 22,5 C 3,2 km/h (1 Bft)
24/08/2012 19:10 22,8 C 63 % 1008,9 hPa 0,0 mm 1,8 km/h (1 Bft) SO 225 0 min 0 W/m 15,4 C 22,8 C 4,0 km/h (1 Bft)
24/08/2012 19:20 22,8 C 62 % 1009,0 hPa 0,0 mm 2,5 km/h (1 Bft) S-SO 202 0 min 0 W/m 15,1 C 22,8 C 3,6 km/h (1 Bft)
24/08/2012 19:30 22,6 C 63 % 1009,0 hPa 0,0 mm 3,6 km/h (1 Bft) SO 225 0 min 0 W/m 15,2 C 22,6 C 6,8 km/h (2 Bft)
24/08/2012 19:40 22,3 C 64 % 1009,0 hPa 0,0 mm 2,9 km/h (1 Bft) SO 225 0 min 0 W/m 15,2 C 22,3 C 6,5 km/h (2 Bft)
24/08/2012 19:50 22,4 C 61 % 1009,0 hPa 0,0 mm 4,7 km/h (1 Bft) SO 225 0 min 0 W/m 14,5 C 22,4 C 6,8 km/h (2 Bft)
24/08/2012 20:00 22,3 C 63 % 1009,3 hPa 0,0 mm 0,4 km/h (0 Bft) SO 225 0 min 0 W/m 14,9 C 22,3 C 0,4 km/h (0 Bft)
24/08/2012 20:10 21,9 C 64 % 1009,3 hPa 0,0 mm 0,4 km/h (0 Bft) S-SO 202 0 min 0 W/m 14,8 C 21,9 C 3,2 km/h (1 Bft)
24/08/2012 20:20 21,5 C 66 % 1009,3 hPa 0,0 mm 1,1 km/h (1 Bft) S-SO 202 0 min 0 W/m 14,9 C 21,5 C 3,6 km/h (1 Bft)
24/08/2012 20:30 21,1 C 67 % 1009,3 hPa 0,0 mm 1,4 km/h (1 Bft) S-SO 202 0 min 0 W/m 14,7 C 21,1 C 4,0 km/h (1 Bft)
24/08/2012 20:40 20,7 C 66 % 1009,2 hPa 0,0 mm 2,5 km/h (1 Bft) SO 225 0 min 0 W/m 14,1 C 20,7 C 4,3 km/h (1 Bft)
24/08/2012 20:50 20,3 C 66 % 1009,3 hPa 0,0 mm 2,5 km/h (1 Bft) S-SO 202 0 min 0 W/m 13,7 C 20,3 C 6,1 km/h (2 Bft)
24/08/2012 21:00 19,9 C 66 % 1009,4 hPa 0,0 mm 2,9 km/h (1 Bft) S-SO 202 0 min 0 W/m 13,4 C 19,9 C 10,8 km/h (2 Bft)
24/08/2012 21:10 19,6 C 67 % 1009,5 hPa 0,0 mm 4,3 km/h (1 Bft) SO 225 0 min 0 W/m 13,3 C 19,6 C 8,3 km/h (2 Bft)
24/08/2012 21:20 19,4 C 68 % 1009,6 hPa 0,0 mm 3,2 km/h (1 Bft) S-SO 202 0 min 0 W/m 13,3 C 19,4 C 7,6 km/h (2 Bft)
24/08/2012 21:30 19,3 C 69 % 1009,7 hPa 0,0 mm 4,3 km/h (1 Bft) S-SO 202 0 min 0 W/m 13,5 C 19,3 C 4,3 km/h (1 Bft)
24/08/2012 21:40 19,1 C 70 % 1009,8 hPa 0,0 mm 3,2 km/h (1 Bft) SO 225 0 min 0 W/m 13,5 C 19,1 C 7,2 km/h (2 Bft)
24/08/2012 21:50 19,1 C 70 % 1009,9 hPa 0,0 mm 3,6 km/h (1 Bft) SO 225 0 min 0 W/m 13,5 C 19,1 C 4,3 km/h (1 Bft)
24/08/2012 22:00 19,1 C 70 % 1010,0 hPa 0,0 mm 4,3 km/h (1 Bft) S-SO 202 0 min 0 W/m 13,5 C 19,1 C 4,3 km/h (1 Bft)
24/08/2012 22:10 19,1 C 71 % 1010,0 hPa 0,0 mm 2,2 km/h (1 Bft) S-SO 202 0 min 0 W/m 13,7 C 19,1 C 3,6 km/h (1 Bft)
24/08/2012 22:20 18,9 C 71 % 1010,2 hPa 0,0 mm 5,4 km/h (2 Bft) SO 225 0 min 0 W/m 13,5 C 18,9 C 5,4 km/h (2 Bft)
24/08/2012 22:30 18,9 C 72 % 1010,2 hPa 0,0 mm 5,0 km/h (1 Bft) SO 225 0 min 0 W/m 13,7 C 18,9 C 7,9 km/h (2 Bft)
24/08/2012 22:40 19,1 C 72 % 1010,3 hPa 0,0 mm 6,1 km/h (2 Bft) S 180 0 min 0 W/m 13,9 C 19,1 C 8,3 km/h (2 Bft)
24/08/2012 22:50 19,2 C 71 % 1010,4 hPa 0,0 mm 4,0 km/h (1 Bft) S-SO 202 0 min 0 W/m 13,8 C 19,2 C 7,6 km/h (2 Bft)
24/08/2012 23:00 19,3 C 71 % 1010,4 hPa 0,0 mm 4,7 km/h (1 Bft) S-SO 202 0 min 0 W/m 13,9 C 19,3 C 10,1 km/h (2 Bft)
24/08/2012 23:10 19,4 C 72 % 1010,4 hPa 0,0 mm 4,7 km/h (1 Bft) S-SO 202 0 min 0 W/m 14,2 C 19,4 C 8,3 km/h (2 Bft)
24/08/2012 23:20 19,4 C 72 % 1010,6 hPa 0,0 mm 4,7 km/h (1 Bft) SO 225 0 min 0 W/m 14,2 C 19,4 C 7,2 km/h (2 Bft)
24/08/2012 23:30 19,5 C 72 % 1010,6 hPa 0,0 mm 4,7 km/h (1 Bft) S-SO 202 0 min 0 W/m 14,3 C 19,5 C 8,6 km/h (2 Bft)
24/08/2012 23:40 19,7 C 72 % 1010,6 hPa 0,0 mm 6,1 km/h (2 Bft) S-SO 202 0 min 0 W/m 14,5 C 19,7 C 10,4 km/h (2 Bft)
24/08/2012 23:50 19,8 C 72 % 1010,5 hPa 0,0 mm 7,6 km/h (2 Bft) S-SO 202 0 min 0 W/m 14,6 C 19,8 C 10,1 km/h (2 Bft)
_ Min-Heure 08:00 13:40 19:10 - 18:50 - - - - 15:30 08:00 18:50
Minimum _ 16,6 C 45 % 1008,9 hPa - 0,0 km/h (0 Bft) - - - - 11,7 C 16,6 C 0,0 km/h (0 Bft)
_ Max-Heure 13:30 06:30 09:20 23:50 14:50 - - 23:50 23:50 19:10 13:30 15:20
Maximum _ 25,3 C 76 % 1011,1 hPa 0,0 mm 10,1 km/h
S-SO (2 Bft)
- - 0 min 0 W/m 15,4 C 25,3 C 19,4 km/h
SO (3 Bft)
Moyenne _ 19,8 C 65 % 1010,0 hPa #0,0 mm 2,6 km/h (1 Bft) S-SO - #0 min. 0 W/m 12,9 C 19,8 C 4,6 km/h (1 Bft)
Saint Bonnet de Bellac- Haute Vienne - France